Address 0x0224c4b1947b01be8f3c0629a65a05a59174905a 7

Txn Hash Method
Block
From
To
Value [Txn Fee]
0xbd6c004ffd91b963ee7f74edf80d55eecc80e5afdc24bced79cf55f54b317b52Transfer From124475412021-09-17 15:02:291 day 11 hrs ago0x0224c4b1947b01be8f3c0629a65a05a59174905aOUT 0x7cbea84d1baebe82f6f9128cfd8a01fb28e6d3e60 BNB0.00052628
0x85674058e8cb556f241a3d2c980e9ab78106020c0f0e3ed4be2f1772cee9aacfMint124474772021-09-17 14:59:171 day 11 hrs ago0x0224c4b1947b01be8f3c0629a65a05a59174905aOUT 0x7cbea84d1baebe82f6f9128cfd8a01fb28e6d3e60 BNB0.00153863
0xeef03f48f65eba5330f30e396fb7b5753bd8acbdc4eeffb737c9d7d7e3218cfb0x60806040124462492021-09-17 13:57:531 day 12 hrs ago0x0224c4b1947b01be8f3c0629a65a05a59174905aOUT Contract Creation0 BNB0.02678692
0x9f0f380eeaa51a43998a9107201e052e7bf83734c1fd06f9ecfb2834b51993e5Mint124451932021-09-17 13:05:051 day 13 hrs ago0x0224c4b1947b01be8f3c0629a65a05a59174905aOUT 0x8b79141d27cd53c51083f484d7c18042bd27789e0 BNB0.00138863
0xb80e8ad624d5d14b51ce96ceca3cafff0a947084eea0ae0d7d15180c9567b9c0Mint124450102021-09-17 12:55:561 day 13 hrs ago0x0224c4b1947b01be8f3c0629a65a05a59174905aOUT 0x8b79141d27cd53c51083f484d7c18042bd27789e0 BNB0.00138875
0x8db297a421ecf7e5d5cc27751713b62d79b514b08aefec46102d725135b4ff2cMint124447222021-09-17 12:41:321 day 14 hrs ago0x0224c4b1947b01be8f3c0629a65a05a59174905aOUT 0x8b79141d27cd53c51083f484d7c18042bd27789e0 BNB0.00138863
0x05f5d82aeded31993c6e7b729f238a647e62a3332e65bdf0ad1cd3be48fbe0b3Mint124347902021-09-17 4:24:551 day 22 hrs ago0x0224c4b1947b01be8f3c0629a65a05a59174905aOUT 0x8b79141d27cd53c51083f484d7c18042bd27789e0 BNB0.00138875
0x8d8af4765f45e7c64079b8ad3fa9390cb1461dba2a0b11e68b1142b66fed1961Mint124343632021-09-17 4:03:341 day 22 hrs ago0x0224c4b1947b01be8f3c0629a65a05a59174905aOUT 0x8b79141d27cd53c51083f484d7c18042bd27789e0 BNB0.00138863
0x5d47333bee1973aef09d3558b04ceb2e761e014fe07ef17cc92188b84d07e3c7Mint124342382021-09-17 3:57:191 day 22 hrs ago0x0224c4b1947b01be8f3c0629a65a05a59174905aOUT 0x8b79141d27cd53c51083f484d7c18042bd27789e0 BNB0.00138863
0xbd8caa2a7112fc7639531f075c9c97e545607681f9a039770f70c0bfd12468cbMint124341442021-09-17 3:52:371 day 22 hrs ago0x0224c4b1947b01be8f3c0629a65a05a59174905aOUT 0x8b79141d27cd53c51083f484d7c18042bd27789e0 BNB0.00138875
0x0e2b0cc56a47eb5340b614dcedb8d2c1f5fea35d293a2f6a5afbb9d58c6f5bcaMint124340482021-09-17 3:47:491 day 23 hrs ago0x0224c4b1947b01be8f3c0629a65a05a59174905aOUT 0x8b79141d27cd53c51083f484d7c18042bd27789e0 BNB0.00138875
0xbdf033598920f24b779f78c5242e7876599eb142503ba664fb119ebc6ecb6014Mint124340312021-09-17 3:46:581 day 23 hrs ago0x0224c4b1947b01be8f3c0629a65a05a59174905aOUT 0x8b79141d27cd53c51083f484d7c18042bd27789e0 BNB0.00138875
0x6b687d8e6157f74211c0e820e433906673bb19c65f9413167ac48fbbf9b5f172Mint124338232021-09-17 3:36:341 day 23 hrs ago0x0224c4b1947b01be8f3c0629a65a05a59174905aOUT 0x8b79141d27cd53c51083f484d7c18042bd27789e0 BNB0.00138875
0x95a71d0a44fe783f610b77af48dcb70c8e3a4c983bf6a2a83dc6151b044e4202Mint124336572021-09-17 3:28:161 day 23 hrs ago0x0224c4b1947b01be8f3c0629a65a05a59174905aOUT 0x8b79141d27cd53c51083f484d7c18042bd27789e0 BNB0.00138863
0x3382c2855a71180ccaff50c683b98a80fb959830f10f70b3565d0c854fc23039Mint124336012021-09-17 3:25:281 day 23 hrs ago0x0224c4b1947b01be8f3c0629a65a05a59174905aOUT 0x8b79141d27cd53c51083f484d7c18042bd27789e0 BNB0.00138875
0x8c51f693f3383d8b91dbd8ab76f5f3daba30d7a69a9048b18a41c373bdbed481Mint124328962021-09-17 2:50:132 days 1 min ago0x0224c4b1947b01be8f3c0629a65a05a59174905aOUT 0x8b79141d27cd53c51083f484d7c18042bd27789e0 BNB0.00138863
0xb6f0354cfb418c4d0edce4681affd28d649d15445da58af50438ce1f2885a5fcMint124321592021-09-17 2:13:222 days 37 mins ago0x0224c4b1947b01be8f3c0629a65a05a59174905aOUT 0x8b79141d27cd53c51083f484d7c18042bd27789e0 BNB0.00138863
0xaf649007349fef869aff92a66b31481f0a91f804fbfbefd68d72e500ce168833Mint124321152021-09-17 2:11:102 days 40 mins ago0x0224c4b1947b01be8f3c0629a65a05a59174905aOUT 0x8b79141d27cd53c51083f484d7c18042bd27789e0 BNB0.00138863
0xbe3b226c360c09f630af9b634e1e225e83f2e46449672cc89403266629a5a47cMint124316992021-09-17 1:48:082 days 1 hr ago0x0224c4b1947b01be8f3c0629a65a05a59174905aOUT 0x8b79141d27cd53c51083f484d7c18042bd27789e0 BNB0.00138863
0x08d8b22e742c580b619ed0c2b69191a889873aaa59caa85b8778a8d1bd04c88bMint124316812021-09-17 1:46:472 days 1 hr ago0x0224c4b1947b01be8f3c0629a65a05a59174905aOUT 0x8b79141d27cd53c51083f484d7c18042bd27789e0 BNB0.00138863
0x1257290f2463637688c0b0c6b8c7ef4c603ac7d798467871d0c58ef45d5d442aMint124316632021-09-17 1:45:242 days 1 hr ago0x0224c4b1947b01be8f3c0629a65a05a59174905aOUT 0x8b79141d27cd53c51083f484d7c18042bd27789e0 BNB0.00138863
0xd9d3baa2fe84bf6b131a962bda5a1274241824d412c4a908fee161c4130ad887Mint124315252021-09-17 1:36:062 days 1 hr ago0x0224c4b1947b01be8f3c0629a65a05a59174905aOUT 0x8b79141d27cd53c51083f484d7c18042bd27789e0 BNB0.00138863
0xdc81cdbe50ce774fa0ba785e5bda0f64953bb0c1bfb6b61cb48f0907da6dcd31Mint124310682021-09-17 1:03:512 days 1 hr ago0x0224c4b1947b01be8f3c0629a65a05a59174905aOUT 0x8b79141d27cd53c51083f484d7c18042bd27789e0 BNB0.00138851
0xe98279fc8fbb5d84f7551dfe93916b17c4e9ed5d1e19c7f05cf950b2f20dc9e8Mint124306952021-09-17 0:39:132 days 2 hrs ago0x0224c4b1947b01be8f3c0629a65a05a59174905aOUT 0x8b79141d27cd53c51083f484d7c18042bd27789e0 BNB0.00026573
0x44fca47a3ffa41c235333587d2e715483b26991599135a53a0fb7cfee8518206Mint124305332021-09-17 0:28:062 days 2 hrs ago0x0224c4b1947b01be8f3c0629a65a05a59174905aOUT 0x8b79141d27cd53c51083f484d7c18042bd27789e0 BNB0.00153863
[ Download CSV Export 
Latest 9 internal transactions
Parent Txn Hash Block From To Value
0x648f7647ea4c023349931479f682f40991ca7bfcd18c2f331fe732102469b6d6113765882021-08-11 4:34:2138 days 22 hrs ago 0x9ac64cc6e4415144c455bd8e4837fea55603e5c30x0224c4b1947b01be8f3c0629a65a05a59174905a1 wei
0x0391206a54736c546ab252238491419b4bbc65e84fd402de350f7319c032f239113765512021-08-11 4:32:3038 days 22 hrs ago 0x9ac64cc6e4415144c455bd8e4837fea55603e5c30x0224c4b1947b01be8f3c0629a65a05a59174905a0.499999999999999929 BNB
0x464635b414a3fa910ac3a9f1d18393e55567b95e79e3aa4a3fd91ebee454bd81113753072021-08-11 3:09:2338 days 23 hrs ago 0xcde540d7eafe93ac5fe6233bee57e1270d3e330f0x0224c4b1947b01be8f3c0629a65a05a59174905a21 wei
0x9341d247d90970c586e7754b052224330fcacd5f66d1a490207de448b9412e65113743792021-08-11 2:15:1139 days 36 mins ago 0x9ac64cc6e4415144c455bd8e4837fea55603e5c30x0224c4b1947b01be8f3c0629a65a05a59174905a0.001442160363097258 BNB
0x7ae4b778f51857b0a5b86bbfccb170dff092cecdeb45292ee3e039fc40ac0a81112838822021-08-07 22:21:3342 days 4 hrs ago 0x3ee123ca1a2c70f4285e4d73b0c4b437e77555350x0224c4b1947b01be8f3c0629a65a05a59174905a0.9 BNB
0x28d74a3410137093d1c19c4fdbc9d96da4f03cdf4e79db171820a92ecbe92d15112820302021-08-07 20:48:5742 days 6 hrs ago 0xca4c7f8ca3c0278ccab0d36d74ce3802ebbc0ed30x0224c4b1947b01be8f3c0629a65a05a59174905a0.1 BNB
0xb1d1d725d83189f31b8afd25771ce1c7949ee7042fef20045d461067e9f86073109717542021-07-28 1:41:3053 days 1 hr ago 0xd4964931d6e15fe30a7f44b049bf545900addb670x0224c4b1947b01be8f3c0629a65a05a59174905a2 BNB
0xa8d4f6a336da394a82296797cb5f7c9f94fe029a2346b8d62684138e480a0d1f109717122021-07-28 1:39:2453 days 1 hr ago 0xd4964931d6e15fe30a7f44b049bf545900addb670x0224c4b1947b01be8f3c0629a65a05a59174905a1 BNB
0x5385e81515aaad906da9b7828f2ec1b8ac27f410442c849599667f80185b9af788385842021-05-14 16:00:53127 days 10 hrs ago 0x38d86f6ee7582a2e00d3a272c7f6a28977563df80x0224c4b1947b01be8f3c0629a65a05a59174905a0.000001 BNB
[ Download CSV Export 
Loading

Contract Name:
0 BNB

Compiler Version
0

Optimization Enabled:
0 BNB

Other Settings:
-NA-
Block Transaction Gas Used Reward
Age Block Fee Address BC Fee Address Voting Power Jailed Incoming
Block Uncle Number Difficulty Gas Used Reward
Loading